カタログに戻る

STARLINK-2513

運用中通信VLEO
NORAD 48317·PAYLOAD·🇺🇸 United States

打ち上げ Apr 29, 2021 から Cape Canaveral Space Force Station

Loading…

次のパス (今後24時間)

TLE

最新Source: CelesTrak SupGP

元期: Sep 14, 2026, 20:00 UTC

1 48317C 21036AT  26257.83381944 -.00004831  00000+0 -15536-3 0  2574
2 48317  53.1569 287.9427 0000938 101.2254 205.3143 15.31704720    17

AllMySatでSTARLINK-2513をリアルタイム追跡

Download on the App Store